User: anonymous   Login
Location: Newark
(53.7496°N, 2.4752°W)
Time: 08:26:32
(UTC+00:00)
Language:

Hubble Space Telescope - Orbit

View from above orbital plane
View from above orbital plane
View from above satellite
View from above satellite

Ground track
Ground track

The orbit data is extracted from the following two-line orbital elements,

1 20580U 90037B   19286.93163164 +.00000432 +00000-0 +15357-4 0  9997
2 20580 028.4686 156.6643 0002530 308.0221 162.3579 15.09280446418531
Epoch (UTC): 13 October 2019 22:21:32
Eccentricity: 0.0002530
inclination: 28.4686°
perigee height: 536 km
apogee height: 540 km
right ascension of ascending node: 156.6643°
argument of perigee: 308.0221°
revolutions per day: 15.09280446
mean anomaly at epoch: 162.3579°
orbit number at epoch: 41853

The dashed part of the orbit path shows where the satellite is in the earth's shadow,  

DLR